Regional Weather Roundup
Issued by NWS State College, PA

Home | Current Version | Previous Version | Text Only | Print | Product List | Glossary Off
Versions: 1 2 3 4 5 6 7 8 9 10 11 12 13 14 15 16 17 18 19 20 21 22 23 24 25 26 27 28 29 30 31 32 33 34 35 36 37 38 39 40 41 42 43 44 45 46 47 48 49 50

000
ASUS41 KCTP 260210
RWRCTP

REGIONAL WEATHER ROUNDUP
NATIONAL WEATHER SERVICE STATE COLLEGE PA
900 PM EST THU DEC 25 2014

Note: "fair" indicates few or no clouds below 12,000 feet with no
significant weather and/or obstructions to visibility.

* = STATION THAT DOES NOT REPORT PRECIPITATION /E.G. RAIN...SNOW...ETC/
    THUNDER OR FOG.

PAZ002>004-007>009-013>016-020>023-029>032-260300-
WESTERN PENNSYLVANIA

CITY           SKY/WX    TMP DP  RH WIND       PRES   REMARKS
ERIE           CLOUDY    39  29  67 SW14      30.15R
MEADVILLE      CLOUDY    36  27  69 SW9       30.14R
FRANKLIN*      CLOUDY    36  27  69 SW7       30.17R
NEW CASTLE       N/A     37  30  76 CALM      30.20R
BEAVER COUNTY  NOT AVBL
BUTLER*        CLOUDY    37  27  65 SW7       30.20S
PITTSBURGH INT CLOUDY    38  29  70 SW6       30.20R
PITTSBURGH     CLOUDY    38  26  62 SW7       30.19R
INDIANA*       CLOUDY    37  28  70 W13G18    30.22R
LATROBE        PTCLDY    37  30  75 W7        30.22R
WASHINGTON CO* NOT AVBL
$$

PAZ004>006-010>012-017>019-024>028-033>037-041-042-045-046-049>053-260300-
CENTRAL PENNSYLVANIA

CITY           SKY/WX    TMP DP  RH WIND       PRES   REMARKS
BRADFORD       CLOUDY    34  26  72 W12G18    30.10R
DUBOIS         CLOUDY    35  28  75 W12       30.13R
CLEARFIELD     CLOUDY    37  28  70 SW10      30.15R
JOHNSTOWN      CLOUDY    33  25  72 W18G24    30.13R
ALTOONA        CLOUDY    37  28  70 W14       30.16F
STATE COLLEGE  CLOUDY    39  28  65 W15       30.16S
WILLIAMSPORT   CLOUDY    42  27  55 W9        30.12R
SELINSGROVE    CLOUDY    43  29  57 W6        30.15S
FT INDIANTOWN  PTCLDY    42  28  58 W9G20     30.14S
CAPITAL CITY   CLEAR     41  29  62 W8        30.15S
HARRISBURG     PTCLDY    41  28  60 NW10      30.14S
YORK           CLEAR     33  27  78 W3        30.15R
$$

PAZ038>040-043-044-047-048-054-055-060>062-067>071-260300-
EASTERN PENNSYLVANIA

CITY           SKY/WX    TMP DP  RH WIND       PRES   REMARKS
SCRANTON       CLOUDY    41  28  60 W14G23    30.08R
MOUNT POCONO   PTCLDY    36  27  69 W16G23    30.03R
ALLENTOWN      CLEAR     43  28  55 W8G16     30.10R
QUAKERTOWN*    NOT AVBL
READING        CLEAR     42  28  57 NW8       30.13R
LANCASTER      PTCLDY    41  29  62 NW10G21   30.14R
COATESVILLE    PTCLDY    41  32  70 NW9       30.14R
POTTSTOWN      CLEAR     41  29  62 W6        30.14R
BLUE BELL      PTCLDY    45  32  61 W6        30.11R
DOYLESTOWN     CLEAR     41  32  70 W7        30.10R
WILLOW GROVE   NOT AVBL
NORTH PHILA    CLEAR     45  28  51 W8        30.13R
PHILADELPHIA   PTCLDY    46  30  53 W14       30.15R
$$



USA.gov is the U.S. government's official web portal to all federal, state and local government web resources and services.